Regional Weather Roundup
Issued by NWS Kansas City/Pleasant Hill, MO

Home | Current Version | Previous Version | Graphics & Text | Print | Product List | Glossary Off
Versions: 1 2 3 4 5 6 7 8 9 10 11 12 13 14 15 16 17 18 19 20 21 22 23 24 25 26 27 28 29 30 31 32 33 34 35 36 37 38 39 40 41 42 43 44 45 46 47 48 49 50

000
ASUS43 KEAX 300910
RWREAX

WEATHER ROUNDUP FOR EASTERN KANSAS AND NORTHWEST MISSOURI
NATIONAL WEATHER SERVICE KANSAS CITY/PLEASANT HILL MO
400 AM CDT THU JUL 30 2015

KSZ040-057-103>105-MOZ028-029-037-043-301000-
...KANSAS CITY METROPOLITAN AREA...

CITY           SKY/WX    TMP DP  RH WIND       PRES   REMARKS
K.C. INTL      PTCLDY    65  63  93 MISG      30.18R
K.C. DOWNTOWN  CLEAR     69  66  90 CALM      30.17S
LEES SUMMIT    PTCLDY    65  63  93 CALM      30.18S
OLATHE - IXD   CLEAR     69  65  86 E3        30.19S
OLATHE - OJC   PTCLDY    69  64  84 CALM      30.18S
LAWRENCE       CLEAR     64  62  93 CALM      30.18S

$$

MOZ001>008-011>017-020>025-030>033-038>040-044>046-053-054-301000-
...NORTHERN AND CENTRAL MISSOURI...

CITY           SKY/WX    TMP DP  RH WIND       PRES   REMARKS
ST. JOSEPH     FOG       64  64 100 CALM      30.18S VSB 1/2
MOSBY          MOSUNNY   63  63 100 CALM      30.18R FOG
WARRENSBURG      N/A     63  63 100 CALM      30.17R FOG
WHITEMAN AFB   PTCLDY    64  63  96 S2        30.16S
CLINTON          N/A     68  64  88 CALM      30.17S
SEDALIA        CLEAR     67  64  90 CALM      30.18S
WARSAW         NOT AVBL
CHILLICOTHE      N/A     64  62  93 CALM      30.18R
KIRKSVILLE     CLEAR     62  60  93 W3        30.17S

$$

MOZ041-047>049-056>058-063>065-088>090-097-301000-
...EASTERN AND SOUTHERN MISSOURI...

CITY           SKY/WX    TMP DP  RH WIND       PRES   REMARKS
ST. LOUIS INTL PTCLDY    71  62  73 NW6       30.12S
SPIRIT OF STL  CLEAR     65  64  97 SW3       30.11F
COLUMBIA       CLEAR     66  61  84 NW5       30.16S
JEFFERSON CITY FOG       65  64  97 NW3       30.15S VSB 1/4
ROLLA          CLEAR     63  60  90 CALM      30.15R
OSAGE BEACH    CLEAR     64  61  88 CALM      30.16S
SPRINGFIELD    PTCLDY    72  65  78 NE5       30.16S
BRANSON        MOCLDY    73  66  78 CALM      30.16S
JOPLIN         MOCLDY    74  67  78 NE6       30.16R
WEST PLAINS    CLEAR     69  63  81 N8        30.16R

$$

IAZ060-094-KSZ022-034>040-054-083-096-NEZ052-066-093-301000-
...KANSAS...SOUTHEAST NEBRASKA AND IOWA...

CITY           SKY/WX    TMP DP  RH WIND       PRES   REMARKS
TOPEKA         FOG       66  66 100 CALM      30.18S VSB 1/4
MANHATTAN      CLEAR     64  63  96 CALM      30.19R
EMPORIA        CLOUDY    71  68  90 E5        30.18S
CHANUTE        CLOUDY    75  66  73 NE3       30.16S
WICHITA        MOCLDY    76  66  71 E9        30.15F
OMAHA          CLEAR     65  60  84 SE7       30.17R
LINCOLN        CLEAR     63  58  83 CALM      30.20R
FALLS CITY     CLEAR     63  63 100 CALM      30.18R FOG
LAMONI         CLEAR     67  58  72 W5        30.17R
DES MOINES     CLEAR     65  58  78 SW6       30.13S

$$



USA.gov is the U.S. government's official web portal to all federal, state and local government web resources and services.